Location: All Nations United Methodist Church
(33.0215°N, 96.7483°W)
Time: 15:24:45
(UTC+00:00)

Aurora 2 Rocket - Pass Details

Date: 24 January 2021
Orbit: 390 x 1740 km, 25.0° (Epoch: 06 March)

Event Time Altitude Azimuth Distance (km) Brightness Sun altitude
Exits shadow 12:45:30 - 250° (WSW) 2,375 5.1 -9.0°
Reaches altitude 10° 12:46:25 10° 246° (WSW) 2,069 4.8 -8.8°
Maximum altitude 12:50:53 36° 179° (S) 1,281 4.4 -7.9°
Drops below altitude 10° 12:57:03 10° 116° (ESE) 2,891 7.7 -6.7°
Sets 13:00:34 0° 109° (ESE) 4,106 9.7 -6.0°
